#timestamp,LO_Frequency,Hit,StdDev 
1630252815.7,286047002.4,P
1630252835.5,286046999.9,N
1630252855.4,286047002.6,N
1630252875.2,286047002.5,N
1630252895.0,286047002.4,N
1630252895.9,286047002.4,N
1630252915.8,286046999.7,N
1630252935.6,286047002.6,N
1630252955.4,286047002.7,N
1630252975.3,286047000.9,N
1630252995.1,286046998.5,N
1630253015.8,286046998.6,N
1630253035.7,286046999.1,N
1630253055.5,286047000.2,N
1630253075.3,286047001.1,N
1630253095.2,286047000.9,N
1630253115.0,286046999.9,N
1630253115.9,286046999.9,N
1630253135.7,286047002.8,N
1630253155.6,286047000.4,N
1630253175.4,286046998.2,N
1630253195.2,286046998.4,N
1630253215.1,286046998.5,N
1630253216.0,286046998.5,N
1630253235.8,286047002.8,N
1630253255.6,286047002.4,N
1630253275.5,286047002.6,N
1630253295.3,286046999.9,N
1630253315.1,286046999.9,N
1630253335.9,286047000.0,N
1630253355.7,286046999.7,N
1630253375.5,286047001.5,N
1630253395.4,286047002.2,N
1630253415.2,286047002.3,N
1630253435.0,286047000.2,N
1630253435.9,286047000.2,N
1630253455.8,286047002.3,N
1630253475.6,286047000.0,N
1630253495.4,286046999.9,N
1630253515.3,286047000.6,N
1630253535.1,286046998.3,N
1630253555.8,286046999.9,N
1630253575.7,286047002.4,N
1630253595.5,286047002.8,N
1630253615.4,286047002.0,N
1630253635.2,286047002.0,N
1630253655.0,286047001.3,N
1630253655.9,286047001.3,N
1630253675.8,286047001.8,N
1630253695.6,286047002.4,N
1630253715.4,286047002.2,N
1630253735.3,286047001.7,N
1630253755.1,286047003.6,N
1630253756.0,286047003.6,N
1630253775.8,286047003.0,N
1630253795.7,286047003.3,N
1630253815.5,286047005.4,Y
1630253835.3,286047003.7,P
1630253855.2,286047003.2,N
1630253875.9,286047003.8,P
1630253895.7,286047004.2,Y
1630253915.6,286047002.6,P
1630253935.4,286047001.9,P
1630253955.2,286047004.0,P
1630253975.1,286047004.1,Y
1630253976.0,286047004.1,P
1630253995.8,286047000.3,N
1630254015.6,286047002.8,N
1630254035.5,286047002.1,N
1630254055.3,286047004.1,Y
1630254075.1,286047001.5,P
1630254095.9,286047001.3,N
1630254115.7,286047001.2,N
1630254135.5,286046994.9,Y
1630254155.4,286046993.1,P
1630254175.2,286046990.1,N
1630254195.0,286046989.2,N
1630254195.9,286046989.2,N
1630254215.8,286046989.6,N
1630254235.6,286046989.9,N
1630254255.4,286046988.9,N
1630254275.3,286046986.3,Y
1630254295.1,286046999.6,P
1630254315.9,286046996.5,N
1630254335.7,286046997.0,N
1630254355.5,286046994.9,N
1630254375.4,286046995.2,N
1630254395.2,286046995.9,N
1630254415.0,286046995.5,N
1630254415.9,286046995.5,N
1630254435.8,286046997.8,N
1630254455.6,286046997.6,N
1630254475.4,286046998.7,N
1630254495.3,286046999.0,N
1630254515.1,286047000.7,N
1630254516.0,286047000.7,N
1630254535.8,286047000.8,N
1630254555.7,286047000.5,N
1630254575.5,286047000.2,N
1630254595.3,286047001.9,N
1630254615.2,286047000.0,N
1630254635.9,286046998.2,N
1630254655.7,286046996.8,N
1630254675.6,286046996.5,N
1630254695.4,286046998.9,N
1630254715.2,286047001.1,N
1630254735.0,286047000.7,N
1630254736.0,286047000.7,N
1630254755.8,286047001.1,N
1630254775.6,286046998.4,N
1630254795.5,286046999.5,N
1630254815.3,286046999.2,N
1630254835.1,286046999.6,N
1630254855.9,286046999.3,N
1630254875.7,286046999.5,N
1630254895.5,286046998.7,N
1630254915.4,286047001.0,N
1630254935.2,286046999.8,N
1630254955.0,286047000.1,N
1630254955.9,286047000.1,N
1630254975.8,286047002.3,N
1630254995.6,286047004.4,Y
1630255015.4,286047000.5,P
1630255035.3,286046998.1,P
1630255055.1,286046997.0,P
1630255056.0,286046997.0,N
1630255075.8,286046999.1,N
1630255095.7,286046996.9,N
1630255115.5,286046999.4,N
1630255135.3,286046999.1,N
1630255155.2,286046996.6,N
1630255175.9,286046997.1,N
1630255195.7,286046998.0,N
1630255215.6,286046997.5,N
1630255235.4,286046999.4,N
1630255255.2,286046999.1,N
1630255275.1,286046999.3,N
1630255276.0,286046999.3,N
1630255295.8,286046998.3,N
1630255315.6,286047000.8,N
1630255335.5,286046998.8,N
1630255355.3,286047000.9,N
1630255375.1,286046998.9,N
1630255395.9,286046999.4,N
1630255415.7,286046999.0,N
1630255435.5,286046999.3,N
1630255455.4,286046996.8,N
1630255475.2,286046995.3,Y
1630255495.0,286046999.1,P
1630255495.9,286046999.1,P
1630255515.8,286046998.5,P
1630255535.6,286046998.1,Y
1630255555.4,286047000.1,P
1630255575.3,286047002.7,P
1630255595.1,286047000.4,N
1630255615.8,286047002.4,N
1630255635.7,286047001.4,N
1630255655.5,286047001.4,N
1630255675.4,286047004.0,Y
1630255695.2,286047001.6,P
1630255715.0,286047002.5,P
1630255715.9,286047002.5,P
1630255735.8,286047001.3,N
1630255755.6,286047002.2,Y
1630255775.4,286047000.9,P
1630255795.3,286046998.3,P
1630255815.1,286047000.3,N
1630255816.0,286047000.3,N
1630255835.8,286047001.2,N
1630255855.7,286046999.0,N
1630255875.5,286046998.6,N
1630255895.3,286047000.3,N
1630255915.2,286047000.5,N
1630255935.9,286046998.5,N
1630255955.7,286046997.2,N
1630255975.6,286046997.4,N
1630255995.4,286046997.7,N
1630256015.2,286046996.9,N
1630256035.1,286046997.6,N
1630256036.0,286046997.6,N
1630256055.8,286046997.9,N
1630256075.6,286046996.1,N
1630256095.5,286046995.0,Y
1630256115.3,286046997.2,P
1630256135.1,286046994.9,P
1630256155.9,286046995.0,P
1630256175.7,286046995.9,N
1630256195.5,286046993.3,Y
1630256215.4,286046996.8,P
1630256235.2,286046999.1,P
1630256255.0,286046999.0,N
1630256255.9,286046999.0,N
1630256275.8,286046998.3,N
1630256295.6,286046996.8,N
1630256315.4,286046998.2,N
1630256335.3,286046997.0,N
1630256355.1,286046997.0,N
1630256375.8,286046997.4,N
1630256395.7,286046999.5,N
